TGW553 VVTS-WSSS

Flight info

Callsign TGW553
Flight time N/A
Altitude 32000
Route K0863F320 NIXIV5H NIXIV L643 CN L642 ESPOB/N0466F320 Q801 ESBUM/N0467F330 Q802 ELALO ELALO1A
Aircraft A21N/M-SDE2E3FGHIJ1RWXY/LB1

Departure

Time N/A
Airport Tan Son Nhat International Airport (VVTS)

Arrival

Time 2026-05-01 07:40
Airport Singapore Changi Airport (WSSS)
Time Latitude Longitude Altitude Speed Heading
2026-05-01 07:23 1.97646 103.91740 15890 ft 417 kts 355°
2026-05-01 07:23 2.03287 103.91713 13636 ft 402 kts
2026-05-01 07:24 2.06088 103.91748 12495 ft 396 kts
2026-05-01 07:24 2.08783 103.91769 11382 ft 390 kts
2026-05-01 07:24 2.11499 103.91813 10306 ft 382 kts
2026-05-01 07:24 2.14037 103.92414 9917 ft 377 kts 24°
2026-05-01 07:25 2.16326 103.93697 9764 ft 371 kts 39°
2026-05-01 07:25 2.18123 103.95506 9634 ft 359 kts 54°
2026-05-01 07:25 2.19313 103.97604 9513 ft 340 kts 69°
2026-05-01 07:25 2.19913 103.99833 9391 ft 325 kts 82°
2026-05-01 07:26 2.19961 104.02052 9220 ft 313 kts 95°
2026-05-01 07:26 2.19512 104.04135 9025 ft 303 kts 108°
2026-05-01 07:26 2.18638 104.06012 8846 ft 294 kts 120°
2026-05-01 07:26 2.17403 104.07628 8666 ft 286 kts 132°
2026-05-01 07:27 2.15907 104.08906 8496 ft 279 kts 143°
2026-05-01 07:27 2.14222 104.09828 8324 ft 272 kts 155°
2026-05-01 07:27 2.12452 104.10377 8156 ft 265 kts 166°
2026-05-01 07:27 2.10618 104.10571 7990 ft 259 kts 178°
2026-05-01 07:28 2.08840 104.10529 7777 ft 253 kts 178°
2026-05-01 07:28 2.07077 104.10519 7453 ft 251 kts 177°
2026-05-01 07:28 2.05320 104.10519 7120 ft 250 kts 177°
2026-05-01 07:28 2.03561 104.10520 6988 ft 248 kts 177°
2026-05-01 07:29 2.01826 104.10518 6988 ft 250 kts 177°
2026-05-01 07:29 2.00095 104.10514 6876 ft 246 kts 177°
2026-05-01 07:29 1.98364 104.10510 6515 ft 247 kts 177°
2026-05-01 07:29 1.96640 104.10518 6150 ft 248 kts 177°
2026-05-01 07:30 1.94916 104.10528 5817 ft 247 kts 177°
2026-05-01 07:30 1.93186 104.10535 5480 ft 246 kts 177°
2026-05-01 07:30 1.91483 104.10523 5167 ft 245 kts 179°
2026-05-01 07:30 1.89759 104.10455 4853 ft 243 kts 180°
2026-05-01 07:31 1.88081 104.10375 4542 ft 242 kts 180°
2026-05-01 07:31 1.83045 104.10142 3599 ft 238 kts 180°
2026-05-01 07:32 1.79747 104.09988 3038 ft 234 kts 180°
2026-05-01 07:32 1.78095 104.09914 2996 ft 236 kts 180°
2026-05-01 07:33 1.74782 104.09773 2986 ft 237 kts 180°
2026-05-01 07:33 1.73111 104.09710 2985 ft 237 kts 180°
2026-05-01 07:33 1.69793 104.09578 2984 ft 237 kts 180°
2026-05-01 07:34 1.68128 104.09507 2983 ft 237 kts 180°
2026-05-01 07:34 1.64820 104.09354 2986 ft 237 kts 180°
2026-05-01 07:34 1.63151 104.09254 2985 ft 237 kts 185°
2026-05-01 07:35 1.61530 104.08925 2985 ft 239 kts 195°
2026-05-01 07:35 1.59950 104.08357 2986 ft 240 kts 200°
2026-05-01 07:35 1.58414 104.07709 2986 ft 240 kts 202°
2026-05-01 07:35 1.56858 104.07032 2986 ft 240 kts 202°
2026-05-01 07:36 1.55323 104.06369 2854 ft 236 kts 202°
2026-05-01 07:36 1.53810 104.05725 2554 ft 236 kts 201°
2026-05-01 07:36 1.52286 104.05080 2488 ft 232 kts 201°
2026-05-01 07:36 1.50853 104.04475 2539 ft 211 kts 201°
2026-05-01 07:37 1.48286 104.03393 2413 ft 199 kts 201°
2026-05-01 07:37 1.46988 104.02847 1968 ft 203 kts 201°
2026-05-01 07:37 1.45708 104.02307 1688 ft 193 kts 201°
2026-05-01 07:38 1.44506 104.01798 1402 ft 176 kts 201°
2026-05-01 07:38 1.43436 104.01346 1221 ft 159 kts 201°
2026-05-01 07:38 1.41467 104.00517 834 ft 150 kts 200°
2026-05-01 07:39 1.40502 104.00111 648 ft 149 kts 200°
2026-05-01 07:39 1.39549 103.99709 449 ft 148 kts 201°
2026-05-01 07:39 1.37660 103.98914 89 ft 145 kts 200°
2026-05-01 07:40 1.36767 103.98534 28 ft 122 kts 201°
2026-05-01 07:40 1.36172 103.98290 28 ft 44 kts 189°
2026-05-01 07:40 1.35967 103.98288 28 ft 15 kts 164°
2026-05-01 07:40 1.35931 103.98367 28 ft 14 kts 57°
2026-05-01 07:41 1.36016 103.98415 28 ft 14 kts 23°
2026-05-01 07:41 1.36108 103.98453 28 ft 14 kts 23°
2026-05-01 07:41 1.36294 103.98532 28 ft 14 kts 23°
2026-05-01 07:42 1.36389 103.98573 28 ft 15 kts 23°
2026-05-01 07:42 1.36496 103.98617 28 ft 17 kts 22°
2026-05-01 07:42 1.36612 103.98666 28 ft 18 kts 23°
2026-05-01 07:42 1.36734 103.98717 28 ft 18 kts 23°
2026-05-01 07:43 1.36824 103.98758 28 ft 12 kts 40°
2026-05-01 07:43 1.36826 103.98837 28 ft 12 kts 113°
2026-05-01 07:43 1.36757 103.98999 28 ft 12 kts 113°
2026-05-01 07:44 1.36672 103.99116 28 ft 9 kts 203°
2026-05-01 07:44 1.36663 103.99054 28 ft 1 kts 276°
2026-05-01 07:45 1.36663 103.99053 28 ft 0 kts 276°